Cloud_Cover
0 0 0 0 5 8 14 7 98 100 100 100 100 24 16 0 0 55 1 0 0 0 0 0 0 0 0 0 0 2 3 2 4 5 5 5 12 60 62 5 31 100 100 85 3 0 0 0 6 82 70 11 65 100
0 0 0 0 0 0 1 59 100 100 100 100 100 96 9 0 0 5 0 0 0 2 3 1 1 3 4 4 4 5 5 66 96 5 12 15 37 6 5 5 5 0 0 2 20 42 75 99 98 83 100 100 100 100
5 1 0 0 0 0 0 51 98 100 81 100 100 100 4 1 0 36 28 0 0 0 0 0 0 3 5 5 4 4 8 78 56 5 5 4 0 0 0 0 0 1 70 100 42 7 12 5 5 5 5 5 5 28
5 5 0 0 0 0 0 0 0 0 0 55 100 100 10 9 3 24 20 0 0 0 1 0 0 0 0 0 0 0 0 0 0 0 0 2 2 0 0 5 4 12 99 98 100 100 100 100 77 52 50 43 9 5
5 5 5 0 0 0 0 0 0 2 3 5 5 98 6 30 2 4 30 5 2 2 4 0 0 0 0 0 0 0 0 0 0 0 0 3 5 5 6 23 5 69 93 90 79 71 99 100 100 95 19 25 10 0
5 5 5 0 0 0 0 0 0 0 0 1 5 5 6 13 5 2 0 0 0 5 11 26 5 1 0 5 3 5 5 3 0 5 5 5 7 33 85 93 31 100 31 51 98 30 92 54 9 6 4 0 0 0
5 5 5 4 0 0 0 0 0 0 0 0 0 0 0 4 63 5 3 4 8 0 0 5 63 5 4 17 4 4 5 5 5 12 44 43 92 100 100 100 100 88 75 69 89 100 70 5 4 0 0 0 0 0
5 5 6 3 4 0 0 0 0 0 0 0 0 0 0 21 54 21 8 5 5 3 0 0 3 0 0 0 0 0 0 0 0 4 5 10 46 97 100 92 97 100 15 5 22 5 0 0 1 0 0 0 0 1
10 5 5 5 5 5 0 0 0 0 0 3 5 27 54 2 0 4 5 5 15 5 1 0 5 5 0 4 3 0 0 0 0 2 5 4 11 23 37 30 42 23 19 22 5 0 4 3 1 0 0 5 5 3
5 5 5 5 5 7 8 5 0 0 5 6 75 4 5 5 6 70 99 97 5 5 5 5 5 5 0 0 2 2 4 4 0 3 1 4 5 5 5 39 82 84 20 5 4 5 4 0 0 0 3 3 0 8
5 5 5 5 5 5 13 4 5 5 10 5 5 5 5 71 89 100 89 8 15 48 13 34 5 5 3 2 4 5 5 5 5 5 5 8 71 5 44 49 5 5 4 0 0 0 0 0 0 1 16 57 96 100
5 5 5 5 5 5 4 6 5 32 82 94 95 93 36 48 98 84 56 92 73 7 8 5 5 5 5 5 5 15 10 5 5 5 5 8 3 3 5 21 5 3 2 3 4 1 0 0 43 84 100 100 100 100
98 11 21 5 5 5 5 4 0 3 75 26 47 59 100 86 99 51 69 100 60 29 91 53 23 5 5 5 5 5 5 5 5 5 5 3 3 5 5 5 4 4 4 2 0 1 2 0 5 78 100 100 100 100
100 100 20 7 5 5 5 5 45 37 91 49 63 57 69 97 73 83 100 73 77 70 76 67 65 86 16 5 5 5 5 9 11 5 5 5 5 5 5 5 5 5 5 5 0 5 0 83 100 96 100 97 100 100
100 97 98 98 21 47 98 83 99 58 78 75 20 82 50 90 98 100 100 91 60 79 99 61 100 100 93 61 15 5 40 46 5 5 5 5 5 5 15 21 50 59 2 0 5 0 3 13 98 100 100 100 99 62
99 100 100 100 67 72 100 99 98 98 48 13 5 5 54 39 96 100 100 100 100 100 100 100 100 100 100 94 42 21 50 29 6 5 21 45 6 7 59 28 5 2 24 5 0 0 0 37 100 100 100 100 53 7
100 100 100 100 100 100 100 100 81 100 31 49 5 6 12 76 100 100 100 100 100 85 100 100 100 98 98 99 33 46 7 5 5 5 14 15 13 100 95 98 97 100 40 3 0 4 5 72 100 100 100 12 54 73
100 100 100 100 100 100 100 100 95 53 100 77 23 67 6 66 59 100 100 100 100 89 65 100 100 100 99 30 85 87 12 33 36 100 78 31 43 95 100 100 97 4 4 0 0 4 86 53 79 100 100 100 100 100
98 100 100 100 100 100 100 87 52 41 100 100 100 9 44 76 8 23 95 100 100 99 100 100 100 100 98 72 28 5 38 81 25 39 5 97 100 100 74 7 3 3 5 2 3 6 62 98 100 100 100 100 100 16
100 100 100 100 100 100 100 100 100 100 100 77 87 17 8 52 76 18 23 98 14 94 100 100 100 97 86 41 8 65 14 13 7 5 6 5 8 15 5 5 4 5 48 2 5 44 97 85 76 97 86 50 9 12
100 100 100 100 100 100 100 100 100 100 100 100 100 96 98 100 100 100 99 100 93 100 100 100 100 50 58 83 6 8 52 5 5 5 7 8 37 39 5 9 5 5 4 5 17 56 100 100 100 75 76 100 10 5
100 100 100 100 100 100 100 100 100 97 99 100 96 95 100 100 100 100 100 84 73 100 100 100 100 100 80 91 99 69 15 98 93 41 33 86 100 99 36 5 6 10 5 13 38 94 100 20 74 100 100 62 6 8
100 100 100 98 98 100 100 99 92 100 100 100 100 100 81 88 94 32 17 88 100 100 100 100 100 100 100 99 82 69 85 61 58 89 100 100 44 38 20 41 22 10 51 77 42 77 89 100 100 100 100 100 70 14
100 100 100 98 100 100 100 95 80 51 12 14 19 13 23 56 17 64 91 94 100 93 94 100 100 100 100 100 96 52 88 98 43 100 100 92 70 29 53 81 8 82 61 98 100 100 100 100 100 100 100 98 38 23
100 100 99 100 100 100 98 71 83 93 95 8 7 39 50 55 80 68 100 44 28 40 53 87 100 99 100 100 100 100 100 86 100 83 100 74 72 36 78 68 5 46 82 52 75 88 100 100 100 100 100 100 89 16
97 100 100 100 100 100 100 100 100 100 100 80 11 5 51 64 45 41 5 5 6 42 55 100 100 100 100 100 100 100 100 99 68 72 100 71 72 44 87 59 37 49 100 100 100 100 100 100 100 100 100 100 99 8
100 99 98 92 64 96 95 73 57 81 96 81 57 7 33 63 19 4 43 45 62 57 7 10 100 100 100 100 100 100 99 100 100 99 100 99 67 16 100 23 95 82 81 100 100 100 100 100 100 92 90 68 34 76
51 98 86 96 63 7 29 84 98 74 74 91 79 88 69 77 80 73 84 89 77 49 68 97 100 100 99 100 100 100 100 100 45 97 100 100 91 53 90 100 98 61 100 100 100 100 100 100 99 19 10 5 18 20
46 100 100 99 74 45 47 68 78 78 84 100 100 100 93 97 100 100 100 85 98 100 100 100 100 100 100 100 100 100 98 99 100 100 92 11 84 67 94 87 76 74 100 100 100 100 86 100 96 39 4 5 5 7
9 22 69 98 57 84 71 82 100 100 100 100 100 100 96 100 100 100 100 91 89 90 100 100 100 100 100 100 100 100 94 54 88 94 24 72 100 81 100 100 100 95 100 100 100 10 85 93 11 5 5 5 5 32
78 91 82 73 97 56 100 100 100 100 100 100 100 100 100 100 99 100 100 98 100 100 100 100 100 100 100 100 100 100 100 100 100 93 78 83 93 99 100 100 100 100 100 82 61 100 62 3 6 62 90 33 5 1
91 68 24 6 60 100 100 100 100 100 70 33 100 100 100 100 100 100 89 100 100 100 100 100 100 100 100 100 100 100 89 40 6 94 100 100 100 92 100 100 81 99 100 96 72 42 77 50 29 96 80 5 21 69
100 100 96 92 96 100 100 100 99 100 100 100 100 100 100 100 100 100 100 99 90 100 100 100 100 99 93 81 56 66 70 89 100 100 100 90 100 96 100 100 100 100 79 14 27 65 76 6 5 28 2 1 3 52